EHI
0 0 0 0 0 0 0 0 0 0 0 0 0 0 0 0 0 0 0 0 0 0 0 0 0 0 0 0 0 0 0 0 0 0 0 0 0 0 0 0 0 0 0 0
0 0 0 0 0 0 0 0 0 0 0 0 0 0 0 0 0 0 0 0 0 0 0 0 0 0 0 0 0 0 0 0 0 0 0 0 0 0 0 0 0 0 0 0
0 0 0 0 0 0 0 0 0 0 0 0 0 0 0 0 0 0 0 0 0 0 0 0 0 0 0 0 0 0 0 0 0 0 0 0 0 0 0 0 0 0 0 0
0 0 0 0 0 0 0 0 0 0 0 0 0 0 0 0 0 0 0 0 0 0 0 0 0 0 0 0 0 0 0 0 0 0 0 0 0 0 0 0 0 0 0 0
0 0 0 0 0 0 0 0 0 0 0 0 0 0 0 0 0 0 0 0 0 0 0 0 0 0 0 0 0 0 0 0 0 0 0 0 0 0 0 0 0 0 0 0
0 0 0 0 0 0 0 0 0 0 0 0 0 0 0 0 0 0 0 0 0 0 0 0 0 0 0 0 0 0 0 0 0 0 0 0 0 0 0 0 0 0 0 0
0 0 0 0 0 0 0 0 0 0 0 0 0 0 0 0 0 0 0 0 0 0 0 0 0 0 0 0 0 0 0 0 0 0 0 0 0 0 0 0 0 0 0 0
0 0 0 0 0 0 0 0 0 0 0 0 0 0 0 0 0 0 0 0 0 0 0 0 0 0 0 0 0 0 0 0 0 0 0 0 0 0 0 0 0 0 0 0
0 0 0 0 0 0 0 0 0 0 0 0 0 0 0 0 0 0 0 0 0 0 0 0 0 0 0 0 0 0 0 0 0 0 0 0 0 0 0 0 0 0 0 0
0 0 0 0 0 0 0 0 0 0 0 0 0 0 0 0 0 0 0 0 0 0 0 0 0 0 0 0 0 0 0 0 0 0 0 0 0 0 0 0 0 0 0 0
0 0 0 0 0 0 0 0 0 0 0 0 0 0 0 0 0 0 0 0 0 0 0 0 0 0 0 0 0 0 0 0 0 0 0 0 0 0 0 0 0 0 0 0
0 0 0 0 0 0 0 0 0 0 0 0 0 0 0 0 0 0 0 0 0 0 0 0 0 0 0 0 0 0 0 0 0 0 0 0 0 0 0 0 0 0 0 0
0 0 0 0 0 0 0 0 0 0 0 0 0 0 0 0 0 0 0 0 0 0 0 0 0 0 0 0 0 0 0 0 0 0 0 0 0 0 0 0 0 0 0 0
0 0 0 0 0 0 0 0 0 0 0 0 0 0 0 0 0 0 0 0 0 0 0 0 0 0 0 0 0 0 0 0 0 0 0 0 0 0 0 0 0 0 0 0
0 0 0 0 0 0 0 0 0 0 0 0 0 0 0 0 0 0 0 0 0 0 0 0 0 0 0 0 0 0 0 0 0 0 0 0 0 0 0 0 0 0 0 0
0 0 0 0 0 0 0 0 0 0 0 0 0 0 0 0 0 0 0 0 0 0 0 0 0 0 0 0 0 0 0 0 0 0 0 0 0 0 0 0 0 0 0 0
0 0 0 0 0 0 0 0 0 0 0 0 0 0 0 0 0 0 0 0 0 0 0 0 0 0 0 0 0 0 0 0 0 0 0 0 0 0 0 0 0 0 0 0
0 0 0 0 0 0 0 0 0 0 0 0 0 0 0 0 0 0 0 0 0 0 0 0 0 0 0 0 0 0 0 0 0 0 0 0 0 0 0 0 0 0 0 0
0 0 0 0 0 0 0 0 0 0 0 0 0 0 0 0 0 0 0 0 0 0 0 0 0 0 0 0 0 0 0 0 0 0 0 0 0 0 0 0 0 0 0 0
0 0 0 0 0 0 0 0 0 0 0 0 0 0 0 0 0 0 0 0 0 0 0 0 0 0 0 0 0 0 0 0 0 0 0 0 0 0 0 0 0 0 0 0
0 0 0 0 0 0 0 0 0 0 0 0 0 0 0 0 0 0 0 0 0 0 0 0 0 0 0 0 0 0 0 0 0 0 0 0 0 0 0 0 0 0 0 0
0 0 0 0 0 0 0 0 0 0 0 0 0 0 0 0 0 0 0 0 0 0 0 0 0 0 0 0 0 0 0 0 0 0 0 0 0 0 0 0 0 0 0 0
0 0 0 0 0 0 0 0 0 0 0 0 0 0 0 0 0 0 0 0 0 0 0 0 0 0 0 0 0 0 0 0 0 0 0 0 0 0 0 0 0 0 0 0
0 0 0 0 0 0 0 0 0 0 0 0 0 0 0 0 0 0 0 0 0 0 0 0 0 0 0 0 0 0 0 0 0 0 0 0 0 0 0 0 0 0 0 0
0 0 0 0 0 0 0 0 0 0 0 0 0 0 0 0 0 0 0 0 0 0 0 0 0 0 0 0 0 0 0 0 0 0 0 0 0 0 0 0 0 0 0 0
0 0 0 0 0 0 0 0 0 0 0 0 0 0 0 0 0 0 0 0 0 0 0 0 0 0 0 0 0 0 0 0 0 0 0 0 0 0 0 0 0 0 0 0
0 0 0 0 0 0 0 0 0 0 0 0 0 0 0 0 0 0 0 0 0 0 0 0 0 0 0 0 0 0 0 0 0 0 0 0 0 0 0 0 0 0 0 0
Wind_Speed
6 4 3 6 8 8 10 10 9 9 10 10 6 4 3 2 1 0 1 1 2 2 2 1 1 1 1 1 1 1 1 2 2 2 1 1 1 1 1 1 1 1 1 1
4 4 5 7 8 10 11 9 10 9 11 6 3 1 1 1 2 2 2 3 2 2 2 2 2 2 1 1 1 1 1 2 2 1 1 1 1 1 1 1 1 1 2 2
4 1 1 9 9 10 7 6 7 11 9 2 1 2 2 2 2 2 2 2 3 3 3 4 4 3 3 3 1 1 1 2 2 1 1 1 1 1 1 1 1 1 2 2
2 2 9 7 3 5 6 5 5 4 3 3 3 1 1 2 3 2 2 2 3 3 3 2 2 1 1 1 1 1 1 1 2 2 2 1 1 1 2 1 1 2 2 2
4 5 8 5 2 3 5 5 4 5 3 1 2 2 3 1 1 2 3 3 3 3 2 1 1 1 1 1 1 1 1 2 2 2 2 2 2 2 2 2 2 2 2 3
4 5 7 5 3 2 3 4 3 3 4 3 3 1 3 2 1 2 2 2 2 1 0 0 1 1 2 1 1 2 3 3 2 2 2 3 3 3 2 2 3 2 2 3
6 6 7 4 2 2 4 5 1 2 2 2 3 3 2 2 2 2 2 2 1 1 1 1 1 1 1 1 2 3 2 2 1 2 2 3 3 2 2 2 2 2 3 3
4 5 8 1 2 4 4 1 1 1 1 1 1 0 1 1 2 1 1 1 1 1 1 1 1 1 1 1 2 2 2 2 2 2 2 1 2 2 2 2 2 2 2 2
6 5 2 1 2 2 2 2 0 1 1 1 1 1 1 2 2 2 1 1 1 0 1 2 1 1 1 2 2 1 1 2 2 1 1 1 1 2 1 1 2 2 2 3
1 3 3 2 1 0 0 1 1 1 1 1 1 1 1 2 2 2 2 1 1 0 0 2 2 1 2 2 2 1 2 2 2 1 1 1 1 1 2 2 2 2 3 3
3 3 2 2 1 1 1 1 1 1 1 1 1 2 2 2 2 2 1 1 1 1 1 2 2 2 2 2 1 1 2 2 2 1 1 2 2 2 3 3 4 4 4 4
4 4 3 3 2 1 1 1 2 1 1 2 2 2 2 2 2 2 1 1 1 1 2 3 2 2 2 2 1 1 2 2 2 1 1 2 2 3 4 5 7 8 8 7
4 2 2 3 3 2 2 3 2 2 3 2 2 2 2 2 2 2 2 2 2 2 3 3 2 3 3 2 2 2 3 3 2 2 2 2 2 2 3 4 5 6 7 8
2 1 1 2 3 2 2 2 2 1 2 2 2 2 2 2 2 2 3 3 2 2 2 3 3 4 4 3 2 3 3 3 3 3 2 2 3 3 3 3 4 3 5 7
2 2 3 2 2 2 2 1 1 2 2 2 2 2 2 2 3 4 3 2 2 2 3 3 3 5 4 3 3 3 3 2 3 3 3 3 3 3 3 4 4 4 3 4
3 2 1 1 2 2 2 2 2 3 3 2 3 3 3 3 3 3 3 2 2 3 4 4 5 5 4 3 3 3 3 5 4 3 3 3 3 3 3 3 4 4 4 4
1 2 2 2 3 3 2 2 3 3 3 3 4 3 3 2 3 4 4 3 4 4 5 5 5 5 4 3 3 3 3 3 5 3 3 3 3 3 4 4 4 5 5 6
2 3 3 3 3 3 3 3 3 3 3 4 3 3 3 3 4 5 5 4 3 4 5 5 5 4 4 4 3 3 3 3 3 3 3 3 4 4 4 5 5 6 5 6
3 3 3 3 3 3 3 4 4 3 3 3 3 4 4 4 5 5 4 4 4 6 5 4 6 5 4 4 4 3 3 3 3 3 3 6 5 4 4 5 5 5 5 5
4 4 4 4 4 3 3 4 4 4 4 3 3 4 5 5 5 4 4 5 5 5 5 4 4 4 4 4 5 3 3 4 4 4 4 4 4 4 4 5 5 5 6 6
6 6 5 5 5 4 4 4 3 4 4 3 4 5 5 5 4 4 4 5 5 4 5 7 4 3 3 4 5 3 3 3 4 4 4 4 4 5 5 5 5 5 6 6
5 5 5 5 5 5 4 4 3 4 4 4 4 5 5 5 5 4 5 5 5 6 4 3 3 5 5 5 3 3 3 4 4 4 4 4 4 5 5 5 5 6 6 6
5 5 5 5 5 5 5 4 4 4 4 5 5 5 5 4 3 4 5 4 3 6 4 3 5 7 8 4 3 3 4 4 4 4 4 4 5 5 5 6 6 6 6 6
5 5 5 5 4 4 5 5 4 4 4 4 4 4 4 4 4 3 4 6 8 7 4 5 8 9 8 3 3 3 4 4 4 4 4 4 4 5 5 6 6 6 6 7
5 5 5 5 4 4 5 5 4 4 4 4 4 4 3 3 4 4 4 4 7 8 4 6 9 9 5 3 3 3 4 4 4 4 4 5 5 5 5 5 6 6 6 6
4 4 4 4 4 4 4 4 4 4 4 4 4 4 3 3 4 4 4 4 6 7 5 4 4 5 3 3 3 4 4 4 5 5 5 5 5 5 5 5 7 6 6 6
5 4 4 4 4 3 3 3 4 5 4 5 5 5 4 4 4 4 4 4 4 4 4 4 4 4 3 3 4 4 4 4 4 4 5 5 5 5 5 6 6 5 5 6
Wind_Direction
245 249 217 230 228 208 208 208 215 237 239 256 252 241 234 222 214 208 237 228 212 212 233 237 244 262 257 254 254 207 179 190 212 218 213 206 209 238 235 208 207 216 222 228
254 238 237 255 245 223 227 227 233 249 259 262 263 202 205 221 211 222 238 238 238 235 237 239 229 230 235 244 251 205 200 226 225 209 199 200 209 214 208 213 217 200 220 219
245 247 298 256 228 215 214 213 206 231 243 213 230 225 217 215 210 218 241 247 244 238 228 230 226 212 208 217 216 190 201 219 220 207 204 221 213 197 221 231 237 231 227 223
194 142 233 244 208 201 207 230 222 224 231 202 194 202 239 211 205 233 259 266 262 250 245 249 240 233 214 199 187 201 215 227 222 205 211 222 214 232 243 240 240 236 236 233
179 221 263 284 252 183 192 247 235 215 223 203 131 55 349 314 226 249 262 264 263 255 241 235 228 204 164 174 211 232 250 250 239 210 207 217 229 242 243 237 250 241 231 230
180 206 238 254 262 222 136 262 247 195 205 190 131 202 268 285 299 306 303 300 300 297 320 140 247 168 147 183 217 248 254 256 246 217 208 220 228 236 240 240 251 254 244 239
206 222 257 266 279 125 175 244 234 183 189 177 198 217 237 298 314 306 308 311 323 2 17 302 250 139 147 208 254 264 272 276 261 237 226 229 230 231 228 234 252 261 254 256
196 216 248 259 125 174 220 251 127 142 154 151 188 217 286 301 306 309 321 329 351 50 2 341 35 123 146 271 278 287 285 282 269 257 248 241 222 236 225 212 234 259 262 273
200 217 262 227 197 227 180 155 189 147 143 136 135 294 308 313 311 309 304 305 319 106 359 337 342 143 201 270 280 288 291 284 272 269 257 240 223 233 240 222 227 248 246 259
251 269 277 285 299 343 151 173 165 147 159 145 200 260 283 296 308 319 319 299 278 136 321 308 305 283 253 270 282 282 285 288 279 268 279 275 253 231 231 235 237 243 242 246
238 267 327 323 289 281 24 82 90 17 289 208 196 254 266 276 283 284 295 300 287 235 254 273 282 287 285 282 279 279 280 284 284 267 254 267 263 239 233 237 229 232 235 232
228 225 214 252 257 250 252 261 238 236 292 278 228 237 252 264 272 270 275 282 285 279 275 281 286 292 291 279 240 240 268 277 273 262 253 256 271 286 259 249 262 257 250 246
236 244 231 255 267 256 243 252 253 236 234 261 266 242 238 253 265 269 271 268 259 261 268 275 281 282 284 280 253 239 250 263 262 253 248 248 252 260 283 291 274 270 266 264
249 240 280 269 266 280 262 264 269 269 262 254 254 256 247 256 267 270 268 264 263 267 272 271 272 276 278 272 258 252 252 256 254 250 247 245 247 251 255 269 287 288 280 274
307 247 226 255 305 315 301 297 310 295 292 292 272 259 249 252 263 270 275 276 275 275 274 272 272 276 276 263 258 260 261 261 256 253 252 251 253 253 255 258 265 275 285 287
332 359 7 331 303 309 328 325 293 286 289 284 282 275 267 261 268 279 282 272 257 267 270 268 269 272 271 260 259 263 263 267 267 257 256 258 257 257 258 258 262 265 268 270
15 338 339 326 311 306 299 284 270 274 280 278 276 278 284 287 288 288 285 275 254 256 259 260 265 271 268 259 252 254 257 265 268 263 256 256 256 257 258 259 261 263 264 266
255 262 264 259 269 286 297 294 281 276 273 273 281 285 279 272 272 276 281 284 282 279 267 258 262 270 266 259 253 249 249 253 255 255 258 259 261 257 258 260 262 265 270 274
337 320 311 302 285 272 277 282 281 276 277 275 270 268 265 265 267 273 278 279 275 277 278 269 272 269 264 262 260 249 249 255 262 264 264 270 274 265 261 262 265 267 270 272
336 329 323 315 309 291 284 285 285 285 282 274 273 276 278 276 273 273 272 266 260 261 272 277 275 266 264 264 264 250 248 252 259 265 266 264 265 267 266 266 267 269 270 270
327 323 321 318 314 307 296 290 288 287 288 280 270 271 275 279 277 272 272 279 279 271 270 274 271 264 262 262 265 250 247 252 257 259 263 265 267 269 268 268 270 272 272 272
317 315 315 315 311 307 304 296 284 284 289 287 280 276 278 281 281 277 266 264 278 288 285 271 268 270 273 275 260 249 251 254 257 258 259 262 265 268 270 271 271 273 274 274
308 306 309 309 306 302 304 300 289 284 284 283 281 277 273 272 272 275 284 284 281 288 288 274 277 281 286 283 266 257 256 257 258 259 260 261 263 264 268 271 272 274 276 276
312 313 313 312 314 313 310 309 304 297 289 286 282 277 277 284 285 269 269 288 296 296 289 286 291 290 291 281 268 265 263 262 261 262 263 265 266 268 270 272 274 274 274 275
313 311 312 316 314 306 304 311 315 310 306 302 298 294 286 274 275 288 291 287 292 298 292 291 295 297 294 281 272 269 268 264 265 266 263 266 268 268 270 272 274 276 276 276
314 312 307 302 298 301 307 313 312 310 310 309 309 305 300 296 290 290 292 292 291 296 295 290 289 290 284 277 270 267 266 274 279 276 271 270 270 271 272 274 274 275 277 276
315 314 313 315 316 314 314 310 307 307 307 304 304 305 303 302 299 296 294 293 295 295 292 289 286 282 278 276 274 272 271 272 272 271 272 271 271 272 274 275 275 276 276 277